Year,Month,Day,Hour,Minute,Value (Times are PST for temperature in C)
2011,10,25,00,00,5.70
2011,10,25,00,01,5.70
2011,10,25,00,02,5.70
2011,10,25,00,03,5.70
2011,10,25,00,04,5.60
2011,10,25,00,05,5.60
2011,10,25,00,06,5.60
2011,10,25,00,07,5.60
2011,10,25,00,08,5.70
2011,10,25,00,09,5.70
2011,10,25,00,10,5.70
2011,10,25,00,11,5.60
2011,10,25,00,12,5.60
2011,10,25,00,13,5.60
2011,10,25,00,14,5.60
2011,10,25,00,15,5.70
2011,10,25,00,16,5.70
2011,10,25,00,17,5.70
2011,10,25,00,18,5.70
2011,10,25,00,19,5.70
2011,10,25,00,20,5.70
2011,10,25,00,21,5.70
2011,10,25,00,22,5.70
2011,10,25,00,23,5.70
2011,10,25,00,24,5.70
2011,10,25,00,25,5.70
2011,10,25,00,26,5.80
2011,10,25,00,27,5.80
2011,10,25,00,28,5.80
2011,10,25,00,29,5.80
2011,10,25,00,30,5.80
2011,10,25,00,31,5.80
2011,10,25,00,32,5.80
2011,10,25,00,33,5.80
2011,10,25,00,34,5.80
2011,10,25,00,35,5.80
2011,10,25,00,36,5.80
2011,10,25,00,37,5.80
2011,10,25,00,38,5.80
2011,10,25,00,39,5.70
2011,10,25,00,40,5.70
2011,10,25,00,41,5.70
2011,10,25,00,42,5.70
2011,10,25,00,43,5.70
2011,10,25,00,44,5.70
2011,10,25,00,45,5.70
2011,10,25,00,46,5.70
2011,10,25,00,47,5.70
2011,10,25,00,48,5.70
2011,10,25,00,49,5.70
2011,10,25,00,50,5.70
2011,10,25,00,51,5.70
2011,10,25,00,52,5.70
2011,10,25,00,53,5.70
2011,10,25,00,54,5.70
2011,10,25,00,55,5.70
2011,10,25,00,56,5.70
2011,10,25,00,57,5.70
2011,10,25,00,58,5.70
2011,10,25,00,59,5.70
2011,10,25,01,00,5.70
2011,10,25,01,01,5.70
2011,10,25,01,02,5.70
2011,10,25,01,03,5.70
2011,10,25,01,04,5.70
2011,10,25,01,05,5.70
2011,10,25,01,06,5.70
2011,10,25,01,07,5.60
2011,10,25,01,08,5.60
2011,10,25,01,09,5.60
2011,10,25,01,10,5.60
2011,10,25,01,11,5.60
2011,10,25,01,12,5.50
2011,10,25,01,13,5.50
2011,10,25,01,14,5.50
2011,10,25,01,15,5.50
2011,10,25,01,16,5.50
2011,10,25,01,17,5.40
2011,10,25,01,18,5.40
2011,10,25,01,19,5.40
2011,10,25,01,20,5.40
2011,10,25,01,21,5.40
2011,10,25,01,22,5.40
2011,10,25,01,23,5.40
2011,10,25,01,24,5.40
2011,10,25,01,25,5.30
2011,10,25,01,26,5.30
2011,10,25,01,27,5.30
2011,10,25,01,28,5.30
2011,10,25,01,29,5.30
2011,10,25,01,30,5.30
2011,10,25,01,31,5.30
2011,10,25,01,32,5.30
2011,10,25,01,33,5.30
2011,10,25,01,34,5.30
2011,10,25,01,35,5.30
2011,10,25,01,36,5.30
2011,10,25,01,37,5.30
2011,10,25,01,38,5.30
2011,10,25,01,39,5.30
2011,10,25,01,40,5.30
2011,10,25,01,41,5.30
2011,10,25,01,42,5.20
2011,10,25,01,43,5.20
2011,10,25,01,44,5.20
2011,10,25,01,45,5.20
2011,10,25,01,46,5.20
2011,10,25,01,47,5.20
2011,10,25,01,48,5.20
2011,10,25,01,49,5.20
2011,10,25,01,50,5.20
2011,10,25,01,51,5.10
2011,10,25,01,52,5.10
2011,10,25,01,53,5.10
2011,10,25,01,54,5.10
2011,10,25,01,55,5.10
2011,10,25,01,56,5.10
2011,10,25,01,57,5.10
2011,10,25,01,58,5.00
2011,10,25,01,59,5.00
2011,10,25,02,00,5.00
2011,10,25,02,01,4.90
2011,10,25,02,02,4.90
2011,10,25,02,03,4.90
2011,10,25,02,04,4.90
2011,10,25,02,05,4.90
2011,10,25,02,06,4.90
2011,10,25,02,07,4.90
2011,10,25,02,08,4.90
2011,10,25,02,09,4.80
2011,10,25,02,10,4.80
2011,10,25,02,11,4.80
2011,10,25,02,12,4.80
2011,10,25,02,13,4.80
2011,10,25,02,14,4.80
2011,10,25,02,15,4.80
2011,10,25,02,16,4.80
2011,10,25,02,17,4.80
2011,10,25,02,18,4.80
2011,10,25,02,19,4.80
2011,10,25,02,20,4.80
2011,10,25,02,21,4.80
2011,10,25,02,22,4.80
2011,10,25,02,23,4.80
2011,10,25,02,24,4.80
2011,10,25,02,25,4.80
2011,10,25,02,26,4.80
2011,10,25,02,27,4.70
2011,10,25,02,28,4.70
2011,10,25,02,29,4.70
2011,10,25,02,30,4.70
2011,10,25,02,31,4.70
2011,10,25,02,32,4.70
2011,10,25,02,33,4.70
2011,10,25,02,34,4.60
2011,10,25,02,35,4.60
2011,10,25,02,36,4.60
2011,10,25,02,37,4.50
2011,10,25,02,38,4.50
2011,10,25,02,39,4.50
2011,10,25,02,40,4.50
2011,10,25,02,41,4.50
2011,10,25,02,42,4.50
2011,10,25,02,43,4.50
2011,10,25,02,44,4.50
2011,10,25,02,45,4.40
2011,10,25,02,46,4.40
2011,10,25,02,47,4.40
2011,10,25,02,48,4.40
2011,10,25,02,49,4.40
2011,10,25,02,50,4.40
2011,10,25,02,51,4.40
2011,10,25,02,52,4.40
2011,10,25,02,53,4.40
2011,10,25,02,54,4.40
2011,10,25,02,55,4.40
2011,10,25,02,56,4.40
2011,10,25,02,57,4.30
2011,10,25,02,58,4.30
2011,10,25,02,59,4.30
2011,10,25,03,00,4.30
2011,10,25,03,01,4.30
2011,10,25,03,02,4.30
2011,10,25,03,03,4.30
2011,10,25,03,04,4.30
2011,10,25,03,05,4.20
2011,10,25,03,06,4.20
2011,10,25,03,07,4.20
2011,10,25,03,08,4.20
2011,10,25,03,09,4.10
2011,10,25,03,10,4.10
2011,10,25,03,11,4.10
2011,10,25,03,12,4.10
2011,10,25,03,13,4.10
2011,10,25,03,14,4.10
2011,10,25,03,15,4.10
2011,10,25,03,16,4.10
2011,10,25,03,17,4.10
2011,10,25,03,18,4.00
2011,10,25,03,19,4.00
2011,10,25,03,20,4.00
2011,10,25,03,21,4.00
2011,10,25,03,22,4.00
2011,10,25,03,23,4.00
2011,10,25,03,24,4.00
2011,10,25,03,25,4.00
2011,10,25,03,26,3.90
2011,10,25,03,27,3.90
2011,10,25,03,28,3.90
2011,10,25,03,29,3.90
2011,10,25,03,30,3.90
2011,10,25,03,31,3.90
2011,10,25,03,32,3.90
2011,10,25,03,33,3.90
2011,10,25,03,34,3.90
2011,10,25,03,35,3.90
2011,10,25,03,36,3.90
2011,10,25,03,37,3.90
2011,10,25,03,38,3.90
2011,10,25,03,39,3.90
2011,10,25,03,40,3.90
2011,10,25,03,41,3.90
2011,10,25,03,42,3.90
2011,10,25,03,43,3.90
2011,10,25,03,44,3.90
2011,10,25,03,45,3.90
2011,10,25,03,46,3.90
2011,10,25,03,47,3.90
2011,10,25,03,48,3.90
2011,10,25,03,49,3.90
2011,10,25,03,50,3.90
2011,10,25,03,51,3.90
2011,10,25,03,52,3.90
2011,10,25,03,53,3.90
2011,10,25,03,54,3.90
2011,10,25,03,55,3.80
2011,10,25,03,56,3.80
2011,10,25,03,57,3.80
2011,10,25,03,58,3.80
2011,10,25,03,59,3.80
2011,10,25,04,00,3.80
2011,10,25,04,01,3.80
2011,10,25,04,02,3.80
2011,10,25,04,03,3.80
2011,10,25,04,04,3.80
2011,10,25,04,05,3.80
2011,10,25,04,06,3.80
2011,10,25,04,07,3.80
2011,10,25,04,08,3.80
2011,10,25,04,09,3.80
2011,10,25,04,10,3.80
2011,10,25,04,11,3.80
2011,10,25,04,12,3.80
2011,10,25,04,13,3.80
2011,10,25,04,14,3.80
2011,10,25,04,15,3.80
2011,10,25,04,16,3.80
2011,10,25,04,17,3.80
2011,10,25,04,18,3.80
2011,10,25,04,19,3.80
2011,10,25,04,20,3.70
2011,10,25,04,21,3.70
2011,10,25,04,22,3.70
2011,10,25,04,23,3.70
2011,10,25,04,24,3.70
2011,10,25,04,25,3.70
2011,10,25,04,26,3.70
2011,10,25,04,27,3.70
2011,10,25,04,28,3.70
2011,10,25,04,29,3.70
2011,10,25,04,30,3.70
2011,10,25,04,31,3.70
2011,10,25,04,32,3.70
2011,10,25,04,33,3.70
2011,10,25,04,34,3.70
2011,10,25,04,35,3.70
2011,10,25,04,36,3.70
2011,10,25,04,37,3.70
2011,10,25,04,38,3.70
2011,10,25,04,39,3.60
2011,10,25,04,40,3.60
2011,10,25,04,41,3.60
2011,10,25,04,42,3.60
2011,10,25,04,43,3.60
2011,10,25,04,44,3.60
2011,10,25,04,45,3.60
2011,10,25,04,46,3.50
2011,10,25,04,47,3.50
2011,10,25,04,48,3.50
2011,10,25,04,49,3.50
2011,10,25,04,50,3.50
2011,10,25,04,51,3.50
2011,10,25,04,52,3.50
2011,10,25,04,53,3.50
2011,10,25,04,54,3.50
2011,10,25,04,55,3.50
2011,10,25,04,56,3.50
2011,10,25,04,57,3.50
2011,10,25,04,58,3.50
2011,10,25,04,59,3.50
2011,10,25,05,00,3.40
2011,10,25,05,01,3.40
2011,10,25,05,02,3.40
2011,10,25,05,03,3.40
2011,10,25,05,04,3.40
2011,10,25,05,05,3.30
2011,10,25,05,06,3.30
2011,10,25,05,07,3.30
2011,10,25,05,08,3.30
2011,10,25,05,09,3.30
2011,10,25,05,10,3.30
2011,10,25,05,11,3.40
2011,10,25,05,12,3.40
2011,10,25,05,13,3.40
2011,10,25,05,14,3.40
2011,10,25,05,15,3.40
2011,10,25,05,16,3.40
2011,10,25,05,17,3.40
2011,10,25,05,18,3.40
2011,10,25,05,19,3.40
2011,10,25,05,20,3.40
2011,10,25,05,21,3.40
2011,10,25,05,22,3.40
2011,10,25,05,23,3.40
2011,10,25,05,24,3.40
2011,10,25,05,25,3.40
2011,10,25,05,26,3.40
2011,10,25,05,27,3.40
2011,10,25,05,28,3.40
2011,10,25,05,29,3.40
2011,10,25,05,30,3.40
2011,10,25,05,31,3.40
2011,10,25,05,32,3.40
2011,10,25,05,33,3.30
2011,10,25,05,34,3.30
2011,10,25,05,35,3.30
2011,10,25,05,36,3.30
2011,10,25,05,37,3.30
2011,10,25,05,38,3.30
2011,10,25,05,39,3.30
2011,10,25,05,40,3.30
2011,10,25,05,41,3.30
2011,10,25,05,42,3.30
2011,10,25,05,43,3.30
2011,10,25,05,44,3.30
2011,10,25,05,45,3.30
2011,10,25,05,46,3.30
2011,10,25,05,47,3.30
2011,10,25,05,48,3.30
2011,10,25,05,49,3.30
2011,10,25,05,50,3.30
2011,10,25,05,51,3.30
2011,10,25,05,52,3.20
2011,10,25,05,53,3.20
2011,10,25,05,54,3.20
2011,10,25,05,55,3.20
2011,10,25,05,56,3.20
2011,10,25,05,57,3.20
2011,10,25,05,58,3.20
2011,10,25,05,59,3.20
2011,10,25,06,00,3.10
2011,10,25,06,01,3.10
2011,10,25,06,02,3.10
2011,10,25,06,03,3.10
2011,10,25,06,04,3.10
2011,10,25,06,05,3.10
2011,10,25,06,06,3.10
2011,10,25,06,07,3.10
2011,10,25,06,08,3.10
2011,10,25,06,09,3.10
2011,10,25,06,10,3.10
2011,10,25,06,11,3.10
2011,10,25,06,12,3.20
2011,10,25,06,13,3.20
2011,10,25,06,14,3.20
2011,10,25,06,15,3.20
2011,10,25,06,16,3.20
2011,10,25,06,17,3.20
2011,10,25,06,18,3.20
2011,10,25,06,19,3.20
2011,10,25,06,20,3.20
2011,10,25,06,21,3.20
2011,10,25,06,22,3.20
2011,10,25,06,23,3.20
2011,10,25,06,24,3.20
2011,10,25,06,25,3.20
2011,10,25,06,26,3.20
2011,10,25,06,27,3.20
2011,10,25,06,28,3.20
2011,10,25,06,29,3.20
2011,10,25,06,30,3.20
2011,10,25,06,31,3.20
2011,10,25,06,32,3.20
2011,10,25,06,33,3.20
2011,10,25,06,34,3.30
2011,10,25,06,35,3.30
2011,10,25,06,36,3.30
2011,10,25,06,37,3.30
2011,10,25,06,38,3.30
2011,10,25,06,39,3.40
2011,10,25,06,40,3.40
2011,10,25,06,41,3.50
2011,10,25,06,42,3.50
2011,10,25,06,43,3.50
2011,10,25,06,44,3.60
2011,10,25,06,45,3.60
2011,10,25,06,46,3.60
2011,10,25,06,47,3.70
2011,10,25,06,48,3.70
2011,10,25,06,49,3.80
2011,10,25,06,50,3.80
2011,10,25,06,51,3.80
2011,10,25,06,52,3.90
2011,10,25,06,53,3.90
2011,10,25,06,54,4.00
2011,10,25,06,55,4.00
2011,10,25,06,56,4.10
2011,10,25,06,57,4.10
2011,10,25,06,58,4.00
2011,10,25,06,59,4.00
2011,10,25,07,00,4.00
2011,10,25,07,01,4.00
2011,10,25,07,02,3.90
2011,10,25,07,03,3.90
2011,10,25,07,04,3.90
2011,10,25,07,05,3.90
2011,10,25,07,06,3.90
2011,10,25,07,07,3.90
2011,10,25,07,08,3.90
2011,10,25,07,09,3.90
2011,10,25,07,10,4.00
2011,10,25,07,11,4.00
2011,10,25,07,12,3.90
2011,10,25,07,13,3.90
2011,10,25,07,14,3.90
2011,10,25,07,15,3.90
2011,10,25,07,16,3.90
2011,10,25,07,17,3.90
2011,10,25,07,18,3.90
2011,10,25,07,19,3.80
2011,10,25,07,20,3.80
2011,10,25,07,21,3.80
2011,10,25,07,22,3.80
2011,10,25,07,23,3.80
2011,10,25,07,24,3.80
2011,10,25,07,25,3.80
2011,10,25,07,26,3.80
2011,10,25,07,27,3.70
2011,10,25,07,28,3.70
2011,10,25,07,29,3.70
2011,10,25,07,30,3.70
2011,10,25,07,31,3.60
2011,10,25,07,32,3.60
2011,10,25,07,33,3.60
2011,10,25,07,34,3.60
2011,10,25,07,35,3.60
2011,10,25,07,36,3.60
2011,10,25,07,37,3.60
2011,10,25,07,38,3.50
2011,10,25,07,39,3.50
2011,10,25,07,40,3.50
2011,10,25,07,41,3.50
2011,10,25,07,42,3.40
2011,10,25,07,43,3.40
2011,10,25,07,44,3.40
2011,10,25,07,45,3.40
2011,10,25,07,46,3.40
2011,10,25,07,47,3.40
2011,10,25,07,48,3.40
2011,10,25,07,49,3.40
2011,10,25,07,50,3.40
2011,10,25,07,51,3.40
2011,10,25,07,52,3.40
2011,10,25,07,53,3.40
2011,10,25,07,54,3.40
2011,10,25,07,55,3.40
2011,10,25,07,56,3.40
2011,10,25,07,57,3.40
2011,10,25,07,58,3.40
2011,10,25,07,59,3.40
2011,10,25,08,00,3.40
2011,10,25,08,01,3.40
2011,10,25,08,02,3.40
2011,10,25,08,03,3.30
2011,10,25,08,04,3.30
2011,10,25,08,05,3.30
2011,10,25,08,06,3.30
2011,10,25,08,07,3.30
2011,10,25,08,08,3.30
2011,10,25,08,09,3.30
2011,10,25,08,10,3.30
2011,10,25,08,11,3.30
2011,10,25,08,12,3.30
2011,10,25,08,13,3.30
2011,10,25,08,14,3.30
2011,10,25,08,15,3.30
2011,10,25,08,16,3.30
2011,10,25,08,17,3.20
2011,10,25,08,18,3.20
2011,10,25,08,19,3.20
2011,10,25,08,20,3.20
2011,10,25,08,21,3.20
2011,10,25,08,22,3.20
2011,10,25,08,23,3.20
2011,10,25,08,24,3.30
2011,10,25,08,25,3.30
2011,10,25,08,26,3.40
2011,10,25,08,27,3.40
2011,10,25,08,28,3.40
2011,10,25,08,29,3.50
2011,10,25,08,30,3.50
2011,10,25,08,31,3.60
2011,10,25,08,32,3.60
2011,10,25,08,33,3.60
2011,10,25,08,34,3.60
2011,10,25,08,35,3.70
2011,10,25,08,36,3.70
2011,10,25,08,37,3.70
2011,10,25,08,38,3.70
2011,10,25,08,39,3.70
2011,10,25,08,40,3.70
2011,10,25,08,41,3.70
2011,10,25,08,42,3.70
2011,10,25,08,43,3.70
2011,10,25,08,44,3.70
2011,10,25,08,45,3.70
2011,10,25,08,46,3.80
2011,10,25,08,47,3.80
2011,10,25,08,48,3.80
2011,10,25,08,49,3.90
2011,10,25,08,50,3.90
2011,10,25,08,51,3.90
2011,10,25,08,52,3.90
2011,10,25,08,53,3.90
2011,10,25,08,54,4.00
2011,10,25,08,55,4.00
2011,10,25,08,56,4.10
2011,10,25,08,57,4.10
2011,10,25,08,58,4.20
2011,10,25,08,59,4.20
2011,10,25,09,00,4.30
2011,10,25,09,01,4.40
2011,10,25,09,02,4.50
2011,10,25,09,03,4.50
2011,10,25,09,04,4.60
2011,10,25,09,05,4.70
2011,10,25,09,06,4.80
2011,10,25,09,07,4.90
2011,10,25,09,08,5.00
2011,10,25,09,09,5.10
2011,10,25,09,10,5.20
2011,10,25,09,11,5.30
2011,10,25,09,12,5.30
2011,10,25,09,13,5.40
2011,10,25,09,14,5.50
2011,10,25,09,15,5.60
2011,10,25,09,16,5.70
2011,10,25,09,17,5.70
2011,10,25,09,18,5.80
2011,10,25,09,19,5.80
2011,10,25,09,20,5.80
2011,10,25,09,21,5.90
2011,10,25,09,22,5.90
2011,10,25,09,23,5.90
2011,10,25,09,24,6.00
2011,10,25,09,25,6.00
2011,10,25,09,26,6.10
2011,10,25,09,27,6.10
2011,10,25,09,28,6.20
2011,10,25,09,29,6.20
2011,10,25,09,30,6.20
2011,10,25,09,31,6.30
2011,10,25,09,32,6.30
2011,10,25,09,33,6.50
2011,10,25,09,34,6.60
2011,10,25,09,35,6.70
2011,10,25,09,36,6.80
2011,10,25,09,37,6.90
2011,10,25,09,38,6.90
2011,10,25,09,39,7.00
2011,10,25,09,40,7.10
2011,10,25,09,41,7.10
2011,10,25,09,42,7.20
2011,10,25,09,43,7.20
2011,10,25,09,44,7.20
2011,10,25,09,45,7.30
2011,10,25,09,46,7.30
2011,10,25,09,47,7.40
2011,10,25,09,48,7.40
2011,10,25,09,49,7.40
2011,10,25,09,50,7.50
2011,10,25,09,51,7.50
2011,10,25,09,52,7.60
2011,10,25,09,53,7.70
2011,10,25,09,54,7.70
2011,10,25,09,55,7.80
2011,10,25,09,56,7.80
2011,10,25,09,57,7.80
2011,10,25,09,58,7.80
2011,10,25,09,59,7.80
2011,10,25,10,00,7.80
2011,10,25,10,01,7.80
2011,10,25,10,02,7.90
2011,10,25,10,03,7.90
2011,10,25,10,04,7.90
2011,10,25,10,05,8.00
2011,10,25,10,06,8.00
2011,10,25,10,07,8.10
2011,10,25,10,08,8.10
2011,10,25,10,09,8.20
2011,10,25,10,10,8.20
2011,10,25,10,11,8.20
2011,10,25,10,12,8.30
2011,10,25,10,13,8.30
2011,10,25,10,14,8.40
2011,10,25,10,15,8.40
2011,10,25,10,16,8.40
2011,10,25,10,17,8.50
2011,10,25,10,18,8.60
2011,10,25,10,19,8.70
2011,10,25,10,20,8.80
2011,10,25,10,21,8.90
2011,10,25,10,22,8.90
2011,10,25,10,23,9.00
2011,10,25,10,24,9.00
2011,10,25,10,25,9.10
2011,10,25,10,26,9.10
2011,10,25,10,27,9.20
2011,10,25,10,28,9.20
2011,10,25,10,29,9.20
2011,10,25,10,30,9.30
2011,10,25,10,31,9.30
2011,10,25,10,32,9.30
2011,10,25,10,33,9.40
2011,10,25,10,34,9.40
2011,10,25,10,35,9.40
2011,10,25,10,36,9.30
2011,10,25,10,37,9.30
2011,10,25,10,38,9.30
2011,10,25,10,39,9.30
2011,10,25,10,40,9.30
2011,10,25,10,41,9.30
2011,10,25,10,42,9.30
2011,10,25,10,43,9.30
2011,10,25,10,44,9.30
2011,10,25,10,45,9.30
2011,10,25,10,46,9.30
2011,10,25,10,47,9.30
2011,10,25,10,48,9.20
2011,10,25,10,49,9.20
2011,10,25,10,50,9.30
2011,10,25,10,51,9.30
2011,10,25,10,52,9.30
2011,10,25,10,53,9.30
2011,10,25,10,54,9.40
2011,10,25,10,55,9.40
2011,10,25,10,56,9.40
2011,10,25,10,57,9.40
2011,10,25,10,58,9.40
2011,10,25,10,59,9.30
2011,10,25,11,00,9.20
2011,10,25,11,01,9.20
2011,10,25,11,02,9.20
2011,10,25,11,03,9.20
2011,10,25,11,04,9.20
2011,10,25,11,05,9.10
2011,10,25,11,06,9.20
2011,10,25,11,07,9.20
2011,10,25,11,08,9.20
2011,10,25,11,09,9.20
2011,10,25,11,10,9.20
2011,10,25,11,11,9.20
2011,10,25,11,12,9.20
2011,10,25,11,13,9.20
2011,10,25,11,14,9.20
2011,10,25,11,15,9.20
2011,10,25,11,16,9.20
2011,10,25,11,17,9.20
2011,10,25,11,18,9.20
2011,10,25,11,19,9.30
2011,10,25,11,20,9.30
2011,10,25,11,21,9.30
2011,10,25,11,22,9.30
2011,10,25,11,23,9.30
2011,10,25,11,24,9.30
2011,10,25,11,25,9.30
2011,10,25,11,26,9.40
2011,10,25,11,27,9.40
2011,10,25,11,28,9.40
2011,10,25,11,29,9.40
2011,10,25,11,30,9.40
2011,10,25,11,31,9.50
2011,10,25,11,32,9.50
2011,10,25,11,33,9.50
2011,10,25,11,34,9.50
2011,10,25,11,35,9.60
2011,10,25,11,36,9.60
2011,10,25,11,37,9.60
2011,10,25,11,38,9.60
2011,10,25,11,39,9.60
2011,10,25,11,40,9.70
2011,10,25,11,41,9.70
2011,10,25,11,42,9.70
2011,10,25,11,43,9.70
2011,10,25,11,44,9.80
2011,10,25,11,45,9.80
2011,10,25,11,46,9.80
2011,10,25,11,47,9.80
2011,10,25,11,48,9.80
2011,10,25,11,49,9.80
2011,10,25,11,50,9.80
2011,10,25,11,51,9.90
2011,10,25,11,52,9.90
2011,10,25,11,53,9.90
2011,10,25,11,54,9.90
2011,10,25,11,55,9.90
2011,10,25,11,56,9.90
2011,10,25,11,57,9.80
2011,10,25,11,58,9.80
2011,10,25,11,59,9.80
2011,10,25,12,00,9.80
2011,10,25,12,01,9.80
2011,10,25,12,02,9.80
2011,10,25,12,03,9.80
2011,10,25,12,04,9.80
2011,10,25,12,05,9.70
2011,10,25,12,06,9.70
2011,10,25,12,07,9.70
2011,10,25,12,08,9.70
2011,10,25,12,09,9.60
2011,10,25,12,10,9.60
2011,10,25,12,11,9.70
2011,10,25,12,12,9.70
2011,10,25,12,13,9.70
2011,10,25,12,14,9.80
2011,10,25,12,15,9.80
2011,10,25,12,16,9.80
2011,10,25,12,17,9.80
2011,10,25,12,18,9.90
2011,10,25,12,19,9.90
2011,10,25,12,20,10.00
2011,10,25,12,21,10.00
2011,10,25,12,22,10.10
2011,10,25,12,23,10.10
2011,10,25,12,24,10.20
2011,10,25,12,25,10.20
2011,10,25,12,26,10.20
2011,10,25,12,27,10.20
2011,10,25,12,28,10.20
2011,10,25,12,29,10.20
2011,10,25,12,30,10.30
2011,10,25,12,31,10.30
2011,10,25,12,32,10.40
2011,10,25,12,33,10.50
2011,10,25,12,34,10.50
2011,10,25,12,35,10.60
2011,10,25,12,36,10.60
2011,10,25,12,37,10.70
2011,10,25,12,38,10.70
2011,10,25,12,39,10.80
2011,10,25,12,40,10.80
2011,10,25,12,41,10.80
2011,10,25,12,42,10.80
2011,10,25,12,43,10.80
2011,10,25,12,44,10.80
2011,10,25,12,45,10.80
2011,10,25,12,46,10.90
2011,10,25,12,47,10.80
2011,10,25,12,48,10.80
2011,10,25,12,49,10.80
2011,10,25,12,50,10.70
2011,10,25,12,51,10.70
2011,10,25,12,52,10.80
2011,10,25,12,53,10.80
2011,10,25,12,54,10.80
2011,10,25,12,55,10.90
2011,10,25,12,56,10.90
2011,10,25,12,57,10.90
2011,10,25,12,58,10.90
2011,10,25,12,59,10.90
2011,10,25,13,00,10.90
2011,10,25,13,01,10.90
2011,10,25,13,02,10.90
2011,10,25,13,03,11.00
2011,10,25,13,04,11.10
2011,10,25,13,05,11.10
2011,10,25,13,06,11.20
2011,10,25,13,07,11.20
2011,10,25,13,08,11.20
2011,10,25,13,09,11.30
2011,10,25,13,10,11.30
2011,10,25,13,11,11.30
2011,10,25,13,12,11.30
2011,10,25,13,13,11.20
2011,10,25,13,14,11.30
2011,10,25,13,15,11.30
2011,10,25,13,16,11.30
2011,10,25,13,17,11.20
2011,10,25,13,18,11.10
2011,10,25,13,19,11.00
2011,10,25,13,20,10.90
2011,10,25,13,21,10.80
2011,10,25,13,22,10.80
2011,10,25,13,23,10.70
2011,10,25,13,24,10.70
2011,10,25,13,25,10.70
2011,10,25,13,26,10.70
2011,10,25,13,27,10.70
2011,10,25,13,28,10.60
2011,10,25,13,29,10.60
2011,10,25,13,30,10.60
2011,10,25,13,31,10.60
2011,10,25,13,32,10.60
2011,10,25,13,33,10.60
2011,10,25,13,34,10.70
2011,10,25,13,35,10.60
2011,10,25,13,36,10.60
2011,10,25,13,37,10.60
2011,10,25,13,38,10.60
2011,10,25,13,39,10.60
2011,10,25,13,40,10.60
2011,10,25,13,41,10.60
2011,10,25,13,42,10.60
2011,10,25,13,43,10.60
2011,10,25,13,44,10.60
2011,10,25,13,45,10.60
2011,10,25,13,46,10.50
2011,10,25,13,47,10.50
2011,10,25,13,48,10.40
2011,10,25,13,49,10.40
2011,10,25,13,50,10.40
2011,10,25,13,51,10.40
2011,10,25,13,52,10.40
2011,10,25,13,53,10.40
2011,10,25,13,54,10.40
2011,10,25,13,55,10.40
2011,10,25,13,56,10.50
2011,10,25,13,57,10.50
2011,10,25,13,58,10.60
2011,10,25,13,59,10.70
2011,10,25,14,00,10.70
2011,10,25,14,01,10.70
2011,10,25,14,02,10.70
2011,10,25,14,03,10.70
2011,10,25,14,04,10.70
2011,10,25,14,05,10.70
2011,10,25,14,06,10.70
2011,10,25,14,07,10.70
2011,10,25,14,08,10.70
2011,10,25,14,09,10.70
2011,10,25,14,10,10.60
2011,10,25,14,11,10.60
2011,10,25,14,12,10.50
2011,10,25,14,13,10.50
2011,10,25,14,14,10.50
2011,10,25,14,15,10.50
2011,10,25,14,16,10.50
2011,10,25,14,17,10.40
2011,10,25,14,18,10.40
2011,10,25,14,19,10.40
2011,10,25,14,20,10.40
2011,10,25,14,21,10.50
2011,10,25,14,22,10.50
2011,10,25,14,23,10.40
2011,10,25,14,24,10.40
2011,10,25,14,25,10.50
2011,10,25,14,26,10.40
2011,10,25,14,27,10.40
2011,10,25,14,28,10.40
2011,10,25,14,29,10.40
2011,10,25,14,30,10.40
2011,10,25,14,31,10.40
2011,10,25,14,32,10.40
2011,10,25,14,33,10.50
2011,10,25,14,34,10.50
2011,10,25,14,35,10.50
2011,10,25,14,36,10.50
2011,10,25,14,37,10.50
2011,10,25,14,38,10.40
2011,10,25,14,39,10.40
2011,10,25,14,40,10.40
2011,10,25,14,41,10.50
2011,10,25,14,42,10.50
2011,10,25,14,43,10.50
2011,10,25,14,44,10.40
2011,10,25,14,45,10.50
2011,10,25,14,46,10.50
2011,10,25,14,47,10.50
2011,10,25,14,48,10.50
2011,10,25,14,49,10.50
2011,10,25,14,50,10.50
2011,10,25,14,51,10.60
2011,10,25,14,52,10.60
2011,10,25,14,53,10.70
2011,10,25,14,54,10.70
2011,10,25,14,55,10.80
2011,10,25,14,56,10.80
2011,10,25,14,57,10.90
2011,10,25,14,58,11.00
2011,10,25,14,59,11.10
2011,10,25,15,00,11.10
2011,10,25,15,01,11.20
2011,10,25,15,02,11.20
2011,10,25,15,03,11.20
2011,10,25,15,04,11.30
2011,10,25,15,05,11.30
2011,10,25,15,06,11.30
2011,10,25,15,07,11.30
2011,10,25,15,08,11.30
2011,10,25,15,09,11.20
2011,10,25,15,10,11.20
2011,10,25,15,11,11.20
2011,10,25,15,12,11.20
2011,10,25,15,13,11.20
2011,10,25,15,14,11.30
2011,10,25,15,15,11.30
2011,10,25,15,16,11.40
2011,10,25,15,17,11.40
2011,10,25,15,18,11.40
2011,10,25,15,19,11.30
2011,10,25,15,20,11.30
2011,10,25,15,21,11.20
2011,10,25,15,22,11.20
2011,10,25,15,23,11.20
2011,10,25,15,24,11.10
2011,10,25,15,25,11.10
2011,10,25,15,26,11.10
2011,10,25,15,27,11.10
2011,10,25,15,28,11.10
2011,10,25,15,29,11.00
2011,10,25,15,30,11.00
2011,10,25,15,31,11.00
2011,10,25,15,32,11.00
2011,10,25,15,33,10.90
2011,10,25,15,34,10.90
2011,10,25,15,35,10.90
2011,10,25,15,36,10.90
2011,10,25,15,37,10.90
2011,10,25,15,38,11.00
2011,10,25,15,39,11.00
2011,10,25,15,40,11.00
2011,10,25,15,41,11.10
2011,10,25,15,42,11.00
2011,10,25,15,43,11.00
2011,10,25,15,44,10.90
2011,10,25,15,45,10.90
2011,10,25,15,46,10.90
2011,10,25,15,47,10.90
2011,10,25,15,48,10.90
2011,10,25,15,49,10.90
2011,10,25,15,50,10.90
2011,10,25,15,51,10.90
2011,10,25,15,52,10.90
2011,10,25,15,53,10.90
2011,10,25,15,54,10.90
2011,10,25,15,55,10.90
2011,10,25,15,56,10.90
2011,10,25,15,57,11.00
2011,10,25,15,58,10.90
2011,10,25,15,59,10.90
2011,10,25,16,00,10.90
2011,10,25,16,01,10.90
2011,10,25,16,02,10.90
2011,10,25,16,03,10.80
2011,10,25,16,04,10.80
2011,10,25,16,05,10.80
2011,10,25,16,06,10.80
2011,10,25,16,07,10.80
2011,10,25,16,08,10.80
2011,10,25,16,09,10.80
2011,10,25,16,10,10.80
2011,10,25,16,11,10.80
2011,10,25,16,12,10.80
2011,10,25,16,13,10.80
2011,10,25,16,14,10.80
2011,10,25,16,15,10.80
2011,10,25,16,16,10.80
2011,10,25,16,17,10.70
2011,10,25,16,18,10.70
2011,10,25,16,19,10.70
2011,10,25,16,20,10.70
2011,10,25,16,21,10.70
2011,10,25,16,22,10.70
2011,10,25,16,23,10.70
2011,10,25,16,24,10.70
2011,10,25,16,25,10.70
2011,10,25,16,26,10.70
2011,10,25,16,27,10.70
2011,10,25,16,28,10.70
2011,10,25,16,29,10.70
2011,10,25,16,30,10.70
2011,10,25,16,31,10.70
2011,10,25,16,32,10.70
2011,10,25,16,33,10.70
2011,10,25,16,34,10.80
2011,10,25,16,35,10.80
2011,10,25,16,36,10.80
2011,10,25,16,37,10.80
2011,10,25,16,38,10.80
2011,10,25,16,39,10.80
2011,10,25,16,40,10.80
2011,10,25,16,41,10.80
2011,10,25,16,42,10.80
2011,10,25,16,43,10.80
2011,10,25,16,44,10.80
2011,10,25,16,45,10.80
2011,10,25,16,46,10.80
2011,10,25,16,47,10.80
2011,10,25,16,48,10.80
2011,10,25,16,49,10.80
2011,10,25,16,50,10.80
2011,10,25,16,51,10.80
2011,10,25,16,52,10.80
2011,10,25,16,53,10.80
2011,10,25,16,54,10.80
2011,10,25,16,55,10.80
2011,10,25,16,56,10.80
2011,10,25,16,57,10.80
2011,10,25,16,58,10.80
2011,10,25,16,59,10.80
2011,10,25,17,00,10.80
2011,10,25,17,01,10.80
2011,10,25,17,02,10.80
2011,10,25,17,03,10.80
2011,10,25,17,04,10.80
2011,10,25,17,05,10.70
2011,10,25,17,06,10.70
2011,10,25,17,07,10.60
2011,10,25,17,08,10.60
2011,10,25,17,09,10.60
2011,10,25,17,10,10.60
2011,10,25,17,11,10.60
2011,10,25,17,12,10.60
2011,10,25,17,13,10.60
2011,10,25,17,14,10.50
2011,10,25,17,15,10.50
2011,10,25,17,16,10.50
2011,10,25,17,17,10.40
2011,10,25,17,18,10.40
2011,10,25,17,19,10.30
2011,10,25,17,20,10.30
2011,10,25,17,21,10.30
2011,10,25,17,22,10.30
2011,10,25,17,23,10.30
2011,10,25,17,24,10.20
2011,10,25,17,25,10.20
2011,10,25,17,26,10.20
2011,10,25,17,27,10.20
2011,10,25,17,28,10.10
2011,10,25,17,29,10.10
2011,10,25,17,30,10.10
2011,10,25,17,31,10.00
2011,10,25,17,32,10.00
2011,10,25,17,33,10.00
2011,10,25,17,34,9.90
2011,10,25,17,35,9.90
2011,10,25,17,36,9.90
2011,10,25,17,37,9.90
2011,10,25,17,38,9.90
2011,10,25,17,39,9.90
2011,10,25,17,40,9.90
2011,10,25,17,41,9.90
2011,10,25,17,42,9.80
2011,10,25,17,43,9.80
2011,10,25,17,44,9.80
2011,10,25,17,45,9.80
2011,10,25,17,46,9.80
2011,10,25,17,47,9.80
2011,10,25,17,48,9.80
2011,10,25,17,49,9.80
2011,10,25,17,50,9.80
2011,10,25,17,51,9.80
2011,10,25,17,52,9.80